Wildwood Lake, Indiana
Current Conditions -  °F | °C
As of 11:15 PM on Friday 24 Oct 2014 (Local Time) from KHNB Reporting Station
Clear Clear  
Wind Chill: 52°   Ceiling: Unl
Heat Index: 52°   Visibility: 10mi
Dew Point: 46°   Wind: 3mph
Humidity: 82%   Direction: 200°SSW
Pressure: 30.06"   Gusts: NA
Location:  38.5454°N, 86.4243°W
Report Text: KHNB 250315Z AUTO 20003KT 10SM CLR 11/08 A3006 RMK AO1
Loading
Personal Weather Stations






























Interactive Weather Map New forecast layout! Learn more

10-Day Weather Forecast

Advertisements
Track Severe Weather on mobile